Weather History for Jaffrey, NH

Change the Weather History Date:

Sunday, January 13, 2013

  Actual Average Record
Temperature  
Mean Temperature 40 °F -  
Max Temperature 45 °F 25 °F 55 °F (2005)
Min Temperature 35 °F 10 °F -2 °F (2001)
Degree Days  
Heating Degree Days 25    
Moisture  
Dew Point 41 °F    
Average Humidity 100    
Maximum Humidity 100    
Minimum Humidity 100    
Precipitation  
Precipitation 0.00 in - - ()
Sea Level Pressure  
Sea Level Pressure 30.06 in    
Wind  
Wind Speed 5 mph (SSW)    
Max Wind Speed 10 mph    
Max Gust Speed -    
Visibility 1 miles    
Events Fog    
Averages and records for this station are not official NWS values.
T = Trace of Precipitation, MM = Missing Value Source: NWS Daily Summary

Daily Weather History Graph

Daily Weather History Graph

Search for Another Location

Airport:

Trip Planner

Search our weather history database for the weather conditions in past years. The results will help you decide how hot, cold, wet, or windy it might be!

Date:

Astronomy

Jan. 13, 2013 Rise Set
Actual Time 7:16 AM EST 4:37 PM EST
Civil Twilight 6:45 AM EST 5:08 PM EST
Nautical Twilight 6:10 AM EST 5:43 PM EST
Astronomical Twilight 5:36 AM EST 6:17 PM EST
Moon 8:09 AM EST (1/13) 7:17 PM EST (1/13)
Length of Visible Light 10h 23m
Length of Day
9h 20m
Waxing Crescent, 5% of the Moon is Illuminated
Jan 13
Waxing Crescent
Jan 18
First Quarter
Jan 26
Full
Feb 3
Last Quarter
Feb 10
New

Hourly Weather History & Observations

Time (EST) Temp. Windchill Dew Point Humidity Pressure Visibility Wind Dir Wind Speed Gust Speed Precip Events Conditions
12:52 AM 37.9 °F 35.5 °F 37.9 °F 100% 30.13 in 0.5 mi South 3.5 mph - N/A Fog Fog
1:52 AM 37.9 °F 34.4 °F 37.9 °F 100% 30.14 in 0.5 mi South 4.6 mph - N/A Fog Fog
2:52 AM 37.9 °F 34.4 °F 37.9 °F 100% 30.15 in 0.2 mi South 4.6 mph - N/A Fog Fog
3:52 AM 37.0 °F 34.5 °F 37.0 °F 100% 30.13 in 0.2 mi SSE 3.5 mph - N/A Fog Fog
4:52 AM 37.0 °F - 37.0 °F 100% 30.13 in 0.2 mi Calm Calm - N/A Fog Fog
5:52 AM 35.1 °F - 35.1 °F 100% 30.12 in 0.2 mi Calm Calm - N/A Fog Fog
6:52 AM 37.0 °F 33.3 °F 37.0 °F 100% 30.15 in 0.5 mi SSW 4.6 mph - N/A Fog Fog
7:52 AM 37.0 °F 33.3 °F 37.0 °F 100% 30.14 in 0.2 mi South 4.6 mph - N/A Fog Fog
8:52 AM 37.0 °F - 37.0 °F 100% 30.15 in 0.2 mi Calm Calm - N/A Fog Fog
9:52 AM 37.9 °F - 37.9 °F 100% 30.15 in 0.2 mi Calm Calm - N/A Fog Fog
10:52 AM 39.9 °F 36.7 °F 39.9 °F 100% 30.14 in 0.2 mi SSW 4.6 mph - N/A Fog Fog
12:52 PM 43.0 °F 40.3 °F 43.0 °F 100% 30.09 in 0.2 mi SW 4.6 mph - N/A Fog Fog
1:52 PM 43.0 °F 37.7 °F 43.0 °F 100% 30.07 in 0.2 mi SSW 9.2 mph - N/A Fog Fog
2:52 PM 43.0 °F 39.5 °F 43.0 °F 100% 30.06 in 0.2 mi SSW 5.8 mph - N/A Fog Fog
4:52 PM 43.0 °F 37.7 °F 43.0 °F 100% 30.02 in 0.5 mi South 9.2 mph - N/A Fog Fog
5:11 PM 44.6 °F 39.7 °F 44.6 °F 100% 29.98 in 1.2 mi South 9.2 mph - N/A   Overcast
5:13 PM 44.6 °F 39.2 °F 44.6 °F 100% 29.98 in 2.0 mi South 10.4 mph - N/A   Overcast
5:21 PM 44.6 °F 39.7 °F 44.6 °F 100% 29.98 in 5.0 mi SSW 9.2 mph - N/A   Overcast
5:52 PM 45.0 °F 41.2 °F 45.0 °F 100% 30.04 in 7.0 mi SSW 6.9 mph - N/A   Overcast
6:12 PM 44.6 °F 39.2 °F 44.6 °F 100% 30.01 in 9.0 mi SW 10.4 mph - N/A   Overcast
6:42 PM 44.6 °F 40.2 °F 44.6 °F 100% 30.00 in 4.0 mi SSW 8.1 mph - N/A   Overcast
6:52 PM 44.1 °F 39.5 °F 44.1 °F 100% 30.04 in 2.0 mi SSW 8.1 mph - N/A   Overcast
7:52 PM 45.0 °F 40.6 °F 45.0 °F 100% 30.04 in 3.0 mi SW 8.1 mph - N/A   Overcast
8:02 PM 44.6 °F 40.2 °F 44.6 °F 100% 30.00 in 2.5 mi SW 8.1 mph - N/A   Overcast
8:18 PM 44.6 °F 42.2 °F 44.6 °F 100% 29.99 in 1.2 mi Variable 4.6 mph - N/A   Overcast
8:26 PM 44.6 °F 40.7 °F 44.6 °F 100% 29.99 in 0.8 mi SSW 6.9 mph - N/A   Overcast
8:52 PM 44.1 °F 41.5 °F 44.1 °F 100% 30.02 in 0.5 mi SW 4.6 mph - N/A Fog Fog
9:52 PM 43.0 °F 41.3 °F 43.0 °F 100% 30.01 in 0.2 mi SSW 3.5 mph - N/A Fog Fog
10:52 PM 39.0 °F 35.7 °F 39.0 °F 100% 30.02 in 0.2 mi SSW 4.6 mph - N/A Fog Fog
11:52 PM 42.1 °F 39.2 °F 42.1 °F 100% 30.01 in 0.2 mi SSW 4.6 mph - N/A Fog Fog